COSMOS 1275 DEB, 42204

Orbit data source: Space-Track

COSMOS 1275 DEB, 42204 is space debris in LEO originally from a launch on Thu, 04 Jun 1981 UTC launched from the Plesetsk Missile And Space Complex (PKMTR). Debris objects in space refer to the collection of defunct objects orbiting the Earth. Examples of debris include non-operational satellites, rocket bodies, and fragments generated from explosions, collisions, or faulty payload assembly.

Loading next visibility...
Identifier
42204, 1981-053TU
Orbit
LEO
Country
Flag of CISCIS
Related business
Manufacturer
Unknown
Mission
Spacecraft
Bus & Motor
Unknown
Mass
Unknown
Launch date (UTC)
1981-06-04 (45 years ago)
Launch vehicle
Unknown
Launch site
Plesetsk Missile And Space Complex (PKMTR)
Object type
Payload
Rocket body
Debris
Shape & HBR
Unknown shape, 0.1 m
Radar Cross Section
Medium (>0.1 m² and <1 m²)

Expand to show TLE details & history
Last TLE update: 9 months ago

TLE from 9 months ago
0 COSMOS 1275 DEB
1 42204U 81053TU  25263.24031667  .00000912  00000-0  97474-3 0  9992
2 42204  83.0606 244.2659 0128671 143.8303 217.1639 13.69294401589646
Epoch: 2025-09-20T05:46Z
TLE epoch observation values (Epoch: 2025-09-20T05:46:03.360Z)
Latitude
-0.00002°
Longitude
158.37585°
Altitude
1,081.132 km
Speed
7.274 km/s
True Right ascension
16h 17m 03s
True Declination
0° 00' 00"
Sunlit
Object was in daylight at epoch
Visualization orbit readout
Latitude
Unknown
Longitude
Unknown
Altitude
Unknown
Speed
Unknown
Apparent Right ascension
Unknown
Apparent Declination
Unknown
Sunlit
N/A
Visualization observer readout
Local Sidereal Time
04:30:02
Azimuth
Unknown
Elevation
Unknown
Doppler factor
Unknown
Orbital elements
Apogee altitude
1,094.183 km
Perigee altitude
904.331 km
Semi-major axis
7,377.394 km
Eccentricity
0.01287
Inclination
83.0606°
RAAN
244.2659°
Arg. of periapsis
143.8303°
True anomaly
216.28449°
Mean anomaly
217.1639°
Eccentric anomaly
216.72307°
Mean motion
3.42522 °/min
Orbital period
105.1 mins
BSTAR
0.00097474
Loading maneuver chart data...
Computing Atmospheric mass density...

Documentation

Showing up to 5 results
|